Location: ????????
(55.0559°N, 39.1270°E)
Time: 07:53:21
(UTC+00:00)

USA 234 - Pass Details

Date: 15 November 2025
Orbit: 1100 x 1107 km, 123.0° (Epoch: 02 December)

Event Time Altitude Azimuth Distance (km) Brightness Sun altitude
Rises 00:27:49 0° 105° (ESE) 3,925 6.8 -37.6°
Reaches altitude 10° 00:30:18 10° 105° (ESE) 2,968 6.0 -37.2°
Enters shadow 00:35:03 52° 105° (ESE) 1,355 3.8 -36.6°
